Volver al catálogo

METEOR 1-18

ActivoMeteoPO
NORAD 7363·PAYLOAD·🇷🇺 Russia

Lanzado Jul 9, 1974 desde Plesetsk Cosmodrome

Loading…

Próximos Pases (próximas 24 horas)

TLE

ActualizadoSource: Space-Track

Época: Sep 14, 2026, 11:44 UTC

1 07363U 74052A   26257.48895145  .00000049  00000-0  24696-4 0  9997
2 07363  81.2245 283.9923 0016333 248.5748 111.3675 14.00281660664595

Sigue METEOR 1-18 en tiempo real con AllMySat

Download on the App Store